Погода в Бектауате

Погода в Бектауате : погода сейчас, прогноз погоды и архив. Всё, что Вы хотите узнать о погоде в Бектауате!

Поиск расширенной информации на нашем сайте:

Другие новости

Новости СМИ2

Главная страница сайта

Новости сайта

03.07.2017

Напоминаем, что на нашем специализированном сайте Метеоцентр.Азия вы можете получить высокодетализированные автоматические прогнозы погоды по пунктам России, СНГ и мира в авиационном формате (включающие направление и скорость ветра, видимость, явления погоды, количество и форму облачности, нижнюю и верхнюю границу облачности).


Погода в Бектауате - сегодня

Время (UTC), дата Ветер
(°,м/с) 
Видим.   Явления Облачность Т
(°С)
Тd
(°С)
f(%) Тe
(°С)
Pmin
(гПа)
dP
(гПа)
Po
(мм)
O2
(г/м3)
Тmin Tmax R s Состояние
почвы
12 20.08.17 050 (СВ) 20000 м    3/3 1000 м 
[Cu med, cong]
+21 +1.5 27 +21  1020.4  713  266           
15 20.08.17 050 (СВ) н/о    ясно 
+17.2 +1.5 35 +19  1021.9  0.5  713  270    +22.3       
18 20.08.17 050 (СВ) н/о    ясно 
+14.4 +1.9 43 +15  1023.4  0.8             
21 20.08.17 050 (СВ) н/о    ясно 
+12.6 +2.3 49 +13  1023.6  -0.3  713  274           
00 21.08.17 020 (С) 20000 м    ясно 
+11.8 +2.7 54 +12  1023.9  0.1  713  275           
03 21.08.17 020 (С) 20000 м    ясно 
+15.8 +4 45 +17  1023.7  0.8  751  285           
06 21.08.17 050 (СВ) 20000 м    6/6 1000 м 
[Cu med, cong]
+19.7 +2.5 32 +21  1022.6  -0.2             
09 21.08.17 050 (СВ) 20000 м    4/4 1000 м 
[Cu med, cong]
+21.6 +3.2 30 +22  1020.4  -1.5  713  266           
12 21.08.17 060 (СВ) 20000 м    3/3 1000 м 
[Cu med, cong]
+22.1 +1.1 25 +22  1019.8  -0.5  712  265           
15 21.08.17 050 (СВ) н/о    ясно 
+19.3 +1.5 30 +20  1021  0.5  713  268    +22.8       
18 21.08.17 050 (СВ) н/о    ясно 
+14.9 +2.7 44 +15  1022  -0.1             
21 21.08.17 050 (СВ) н/о    ясно 
+13.2 +3.4 51 +14  1021.8  -0.6  712  273           
00 22.08.17 050 (СВ) н/о    ясно 
+12.8 +4.3 56 +13  1021.9  712  273           
03 22.08.17 050 (СВ) 20000 м    ясно 
+17.7 +5.3 44 +18  1021.4  0.7  751  283           
06 22.08.17 020 (С) 20000 м    3/3 1000 м 
[Cu hum]
+21.1 +4 32 +21  1019.9  -0.6  712  266  +12.5         
09 22.08.17 050 (СВ) 20000 м    4/4 1000 м 
[Cu med, cong]
+23.6 +3.2 26 +24  1018  -1.2  711  263           
12 22.08.17 070 (В) 20000 м    5/5 1000 м кучево-дожд. 
[Cb calv]
+23.4 +2.1 25 +23  1017.6  -0.4  711  264           
15 22.08.17 050 (СВ) н/о    ясно 
+19.6 +2.9 33 +20  1019.9  1.3  712  267    +24.8       
18 22.08.17 050 (СВ) н/о    ясно 
+17.2 +4 41 +18  1021.1  0.5             
21 22.08.17 050 (СВ) н/о    ясно 
+14.6 +5 52 +14  1021.6  -0.1  712  272           
00 23.08.17 050 (СВ) н/о    ясно 
+14.3 +5.6 56 +14  1022.2  0.5  713  272           
03 23.08.17 050 (СВ) 20000 м    3/0 верхняя 
[Ci fib]
+19.1 +6.2 43 +19  1021.9  0.9  751  282           
06 23.08.17 050 (СВ) 20000 м    ясно 
+23 +4.1 29 +23  1020.8  -0.3  713  264  +14         
09 23.08.17 090 (В) 20000 м    3/3 1000 м 
+25.6 +4.6 26 +26  1018.9  -1  712  262           
12 23.08.17 050 (СВ) 20000 м    8/4 1000 м верхняя 
[Cu med, cong|Ci fib]
+25.1 +5.6 29 +25  1019.4  0.3  713  262           
Время (UTC), дата Ветер
(°,м/с) 
Видим.   Явления Облачность Т
(°С)
Тd
(°С)
f(%) Тe
(°С)
Pmin
(гПа)
dP
(гПа)
Po
(мм)
O2
(г/м3)
Тmin Tmax R s Состояние
почвы

Для получения пояснительной информации подведите курсор к названию столбца.

ПОГОДА в Бектауате - архив

Всё, что Вы хотите узнать о погоде в Бектауате - удобно и подробно!

Выберите нужную дату (начиная с 1 января 2015* года) и нажмите кнопку "Найти".
Будут отображены архивные сводки погоды по пункту Бектауата, начиная с указанной даты.


Отображать данные в формате CSV (для использования в таблицах Excel)


Внимание! Наш архив погоды предназначен исключительно для личного некоммерческого использования в познавательных целях. Если Вам необходимы официальные справки о состоянии погоды (для производственных, юридических, коммерческих и т.п. целей), обращайтесь в органы Росгидромета.

*Примечание: данная дата относится к архиву по метеостанциям СССР (Россия, СНГ, Балтия).
Архив по метеостанциям Зарубежной Европы и Азии (кроме Китая) хранится 10 дней, по другим регионам земного шара (Китай, Африка, Америка, Австралия, Океания) - 1 день.

Бектауата - район местоположения метеостанции


Название, широта, долгота, высота метеостанции:
Бектауата 47.4°ш. 74.8°д. 520 м над ур. моря [Казахстан]

Дополнительная информация

В oтличие oт бoльшинства пoгoдных сайтoв мы публикуем пoдрoбную метеoинфoрмацию в детальнoм прoфессиoнальнoм фoрмате.

Характеристики температуры и влажнoсти вoздуха измеряются на высoте 2 м в тени вдали oт зданий и деревьев.
Скoрoсть ветра измеряется на высoте 10 м (на урoвне рoста челoвека скoрoсть ветра ниже в 1.5-2 раза). Если метеoстанция нахoдится в гoрoде или в лесу, тo скoрoсть ветра занижена на 2-4 м/с пo сравнению с oткрытым местoм. Скoрoсть ветра над акватoриями крупных рек и oзёр, а также на вершинах хoлмoв на 2-5 м/с выше, чем в oбычных услoвиях.
Атмoсфернoе давление в разных тoчках местнoсти мoжет значительнo oтличаться oт давления на метеoстанции, в зависимoсти oт услoвий рельефа (при пoдъёме на 10 м давление пoнижается примернo на 1 мм рт.ст.).